Waarnemingen

Advertentie
Mijn weer
Marseille/Marignane, Frankrijk (7650): temperatuur & dauwpunt: 20.04.2018 11:00:00 - 26.04.2018 11:00:00 (CEST)Marseille/Marignane, Frankrijk (7650): temperatuur 5cm: 20.04.2018 11:00:00 - 26.04.2018 11:00:00 (CEST)Marseille/Marignane, Frankrijk (7650): temperatuur -20cm & temperatuur -100cm: 20.04.2018 11:00:00 - 26.04.2018 11:00:00 (CEST)Marseille/Marignane, Frankrijk (7650): windsnelheid & windstoten: 20.04.2018 11:00:00 - 26.04.2018 11:00:00 (CEST)Marseille/Marignane, Frankrijk (7650): windrichting: 20.04.2018 11:00:00 - 26.04.2018 11:00:00 (CEST)Marseille/Marignane, Frankrijk (7650): luchtdruk: 20.04.2018 11:00:00 - 26.04.2018 11:00:00 (CEST)Marseille/Marignane, Frankrijk (7650): zicht: 20.04.2018 11:00:00 - 26.04.2018 11:00:00 (CEST)Marseille/Marignane, Frankrijk (7650): Zonneschijnduur: 20.04.2018 11:00:00 - 26.04.2018 11:00:00 (CEST)Marseille/Marignane, Frankrijk (7650): neerslag: 20.04.2018 11:00:00 - 26.04.2018 11:00:00 (CEST)
Datum & Tijd tt [°C] td [°C] tt 5cm [°C] tt -20cm [°C] tt -100cm [°C] ff [km/u] ff [kn] fx [km/u] fx [kn] dd ppp [hPa] vv [km] sd [min] rr [mm]
26.04.2018 11:00:00 20,6 9,2 21,7 17,4 14,6 29 16 44 24 NW 1015,1 20 60 0,0
26.04.2018 10:00:00 19,6 9,5 20,6 17,4 14,5 29 16 46 25 NW 1015,3 20 60 0,0
26.04.2018 09:00:00 18,3 8,8 18,0 17,6 14,5 24 13 44 24 NW 1015,6 56 60 0,0
26.04.2018 08:00:00 17,6 8,4 16,0 17,8 14,5 26 14 35 19 NW 1015,2 59 60 0,0
26.04.2018 07:00:00 17,4 8,5 15,9 18,0 14,5 24 13 36 19 NW 1015,0 51 0 0,0
26.04.2018 06:00:00 17,7 8,3 15,6 18,3 14,5 23 12 34 18 NW 1015,3 54 0 0,0
26.04.2018 05:00:00 17,7 9,1 13,8 18,5 14,5 16 9 30 16 NW 1015,5 60 0 0,0
26.04.2018 04:00:00 17,7 10,6 15,3 18,7 14,5 21 12 34 18 NW 1015,2 50 0 0,0
26.04.2018 03:00:00 16,6 12,1 15,0 18,9 14,5 16 9 22 12 WNW 1015,7 44 0 0,0
26.04.2018 02:00:00 17,4 11,7 15,0 19,2 14,5 19 11 24 13 WNW 1015,9 58 0 0,0
26.04.2018 01:00:00 18,0 12,2 15,5 19,5 14,5 18 10 23 12 WZW 1016,2 54 0 0,0
26.04.2018 00:00:00 18,2 12,9 15,4 19,7 14,5 12 6 18 10 WZW 1016,3 54 0 0,0
25.04.2018 23:00:00 19,1 13,9 17,0 19,9 14,5 14 8 21 11 ZW 1016,4 39 0 0,0
25.04.2018 22:00:00 19,6 14,0 17,3 20,1 14,5 10 6 27 15 ZW 1016,3 35 0 0,0
25.04.2018 21:00:00 20,3 15,5 17,9 20,2 14,5 14 7 27 15 ZZW 1015,4 30 11 0,0
25.04.2018 20:00:00 21,1 15,0 20,0 20,2 14,5 14 7 27 14 ZZW 1015,0 27 57 0,0
25.04.2018 19:00:00 22,6 15,4 22,9 20,1 14,5 13 7 24 13 ZW 1015,0 20 60 0,0
25.04.2018 18:00:00 22,6 16,2 23,9 19,9 14,5 18 10 34 18 WZW 1015,0 14 60 0,0
25.04.2018 17:00:00 22,7 16,7 25,1 19,5 14,4 25 14 38 20 WZW 1015,1 10 60 0,0
25.04.2018 16:00:00 24,2 16,5 28,7 19,0 14,4 25 13 32 18 WZW 1015,4 9 60 0,0
25.04.2018 15:00:00 24,5 15,7 29,5 18,4 14,4 12 6 18 10 WZW 1016,1 18 60 0,0
25.04.2018 14:00:00 22,7 13,7 28,7 17,9 14,4 8 4 16 8 WZW 1016,7 18 60 0,0
25.04.2018 13:00:00 20,8 15,1 27,5 17,4 14,4 10 6 16 9 W 1017,9 11 60 0,0
25.04.2018 12:00:00 19,7 14,9 26,2 17,0 14,4 11 6 16 8 WNW 1018,8 0,4 60 0,0
25.04.2018 11:00:00 19,1 14,8 23,7 16,8 14,4 6 3 15 8 W 1019,0 10 60 0,0
25.04.2018 10:00:00 18,2 14,5 21,4 16,8 14,4 10 6 16 9 W 1018,9 9 60 0,0
25.04.2018 09:00:00 18,4 13,3 16,5 16,9 14,4 3 2 6 3 Z 1018,2 11 60 0,0
25.04.2018 08:00:00 15,5 12,4 10,9 17,1 14,4 2 1 8 4 ZZO 1017,9 10 57 0,0
25.04.2018 07:00:00 13,4 10,4 9,6 17,3 14,4 4 2 6 4 ZZO 1017,7 12 0 0,0
25.04.2018 06:00:00 13,2 10,6 9,7 17,6 14,4 6 3 11 6 OZO 1017,5 15 0 0,0
25.04.2018 05:00:00 13,6 10,8 11,2 17,8 14,4 5 3 11 6 ZZO 1017,3 18 0 0,0
25.04.2018 04:00:00 14,1 10,7 11,1 18,1 14,4 7 4 12 7 ZO 1017,0 16 0 0,0
25.04.2018 03:00:00 14,5 10,7 10,9 18,4 14,4 8 4 10 5 ZO 1017,1 18 0 0,0
25.04.2018 02:00:00 14,5 11,1 11,3 18,7 14,3 8 4 10 6 OZO 1017,6 16 0 0,0
25.04.2018 01:00:00 15,5 11,3 11,3 19,0 14,4 3 2 8 4 OZO 1018,0 18 0 0,0
25.04.2018 00:00:00 15,8 11,6 11,9 19,3 14,4 4 2 6 3 Z 1018,2 18 0 0,0
24.04.2018 23:00:00 17,7 12,2 12,0 19,7 14,3 0 0 6 3 N 1018,0 22 0 0,0
24.04.2018 22:00:00 17,3 12,0 13,2 19,9 14,3 5 3 16 9 ZZO 1017,8 24 0 0,0
24.04.2018 21:00:00 18,0 12,2 15,7 20,2 14,3 10 6 22 12 Z 1017,5 26 10 0,0
24.04.2018 20:00:00 19,3 13,0 18,6 20,3 14,3 17 9 24 13 ZZO 1016,9 24 60 0,0
24.04.2018 19:00:00 20,8 13,5 22,7 20,2 14,3 18 10 31 17 Z 1016,7 27 60 0,0
24.04.2018 18:00:00 22,1 13,7 25,1 20,1 14,3 22 12 32 17 Z 1016,8 20 60 0,0
24.04.2018 17:00:00 22,9 14,7 27,2 19,8 14,3 28 15 34 19 Z 1016,9 21 60 0,0
24.04.2018 16:00:00 23,3 14,8 28,6 19,3 14,3 27 15 35 19 Z 1017,1 19 60 0,0
24.04.2018 15:00:00 25,0 14,8 29,3 18,7 14,3 21 12 31 17 Z 1017,4 20 60 0,0
24.04.2018 14:00:00 25,6 13,4 29,2 18,1 14,3 14 8 18 10 WZW 1017,7 38 60 0,0
24.04.2018 13:00:00 24,0 13,5 29,7 17,5 14,3 11 6 16 8 WZW 1018,3 40 60 0,0
24.04.2018 12:00:00 21,9 14,5 28,4 17,1 14,3 11 6 18 10 WZW 1018,5 18 60 0,0
24.04.2018 11:00:00 21,4 13,3 27,2 16,9 14,3 8 4 11 6 WZW 1018,4 17 60 0,0
24.04.2018 10:00:00 19,2 13,4 23,2 16,8 14,3 4 2 13 7 NO 1018,4 19 60 0,0
24.04.2018 09:00:00 17,5 13,0 16,8 16,9 14,2 7 4 16 9 NNW 1018,1 20 60 0,0
24.04.2018 08:00:00 16,6 13,3 13,9 17,0 14,2 5 3 15 8 NW 1017,8 24 56 0,0
24.04.2018 07:00:00 15,5 12,8 13,5 17,3 14,2 15 8 24 13 WNW 1017,4 37 0 0,0
24.04.2018 06:00:00 15,2 12,3 10,7 17,5 14,2 14 8 22 12 WNW 1017,1 14 0 0,0
24.04.2018 05:00:00 15,3 12,2 12,5 17,7 14,2 6 3 13 7 N 1017,3 7 0 0,0
24.04.2018 04:00:00 16,7 13,8 12,6 17,8 14,2 6 4 26 14 NW 1017,6 11 0 0,0
24.04.2018 03:00:00 16,1 13,4 12,7 18,0 14,2 4 2 18 10 NW 1017,7 11 0 0,0
24.04.2018 02:00:00 17,1 14,4 15,9 18,1 14,2 3 2 9 5 ZZO 1018,2 10 0 0,0
24.04.2018 01:00:00 16,9 14,4 15,8 18,3 14,2 6 3 11 6 ZO 1018,5 9 0 0,0
24.04.2018 00:00:00 17,6 14,3 15,6 18,4 14,2 5 3 9 5 ZO 1018,5 11 0 0,0
23.04.2018 23:00:00 17,8 14,5 16,2 18,6 14,2 5 3 19 11 NO 1018,8 14 0 0,0
23.04.2018 22:00:00 17,8 14,9 16,8 18,8 14,2 13 7 27 14 NW 1019,1 13 0 0,0
23.04.2018 21:00:00 17,9 14,0 16,7 18,9 14,2 14 8 26 14 ZW 1018,6 16 0 0,0
23.04.2018 20:00:00 18,0 14,1 17,2 18,9 14,2 4 2 11 6 WZW 1017,8 20 0 0,0
23.04.2018 19:00:00 18,3 13,8 18,4 18,8 14,1 6 3 17 9 ZZW 1017,9 22 7 0,0
23.04.2018 18:00:00 19,2 14,5 20,1 18,7 14,1 9 5 25 13 Z 1018,3 22 6 0,0
23.04.2018 17:00:00 20,5 13,7 22,0 18,4 14,2 19 11 25 13 Z 1018,1 29 28 0,0
23.04.2018 16:00:00 21,3 12,4 23,5 18,0 14,1 18 10 24 13 ZZW 1018,6 29 47 0,0
23.04.2018 15:00:00 22,3 11,7 24,0 17,7 14,1 12 6 24 13 Z 1019,0 20 8 0,0
23.04.2018 14:00:00 21,9 10,7 24,2 17,2 14,1 18 10 26 14 Z 1019,2 45 25 0,0
23.04.2018 13:00:00 23,4 10,4 26,6 16,7 14,1 15 8 24 13 Z 1019,4 17 56 0,0
23.04.2018 12:00:00 22,6 9,4 26,3 16,3 14,1 14 8 21 11 ZZW 1019,6 10 52 0,0
23.04.2018 11:00:00 22,8 9,6 26,9 16,0 14,1 7 4 16 8 ZW 1019,6 20 50 0,0
23.04.2018 10:00:00 21,6 10,4 25,0 15,9 14,1 2 1 7 4 NNO 1019,2 33 60 0,0
23.04.2018 09:00:00 18,7 11,0 14,8 16,0 14,1 0 0 4 2 N 1019,3 18 54 0,0
23.04.2018 08:00:00 14,1 9,3 10,4 16,2 14,1 3 2 10 5 ZO 1019,4 20 38 0,0
23.04.2018 07:00:00 11,8 8,1 8,8 16,5 14,1 8 4 10 5 ZO 1018,9 25 0 0,0
23.04.2018 06:00:00 11,8 7,7 9,7 16,8 14,1 6 4 10 6 ZO 1018,6 28 0 0,0
23.04.2018 05:00:00 12,8 8,3 9,2 17,1 14,1 6 4 10 5 ZO 1018,8 27 0 0,0
23.04.2018 04:00:00 14,2 8,4 9,2 17,4 14,1 4 2 10 5 O 1018,8 30 0 0,0
23.04.2018 03:00:00 14,6 8,1 9,9 17,6 14,0 7 4 10 6 O 1019,0 33 0 0,0
23.04.2018 02:00:00 13,4 8,7 10,7 18,0 14,0 7 4 10 5 OZO 1019,5 32 0 0,0
23.04.2018 01:00:00 13,8 9,4 11,3 18,3 14,0 7 4 11 6 ZO 1019,8 35 0 0,0
23.04.2018 00:00:00 15,1 9,5 11,7 18,7 14,0 10 5 11 6 ZO 1019,8 36 0 0,0
22.04.2018 23:00:00 16,6 9,8 11,6 19,0 14,0 6 3 9 5 ZO 1019,6 33 0 0,0
22.04.2018 22:00:00 17,8 9,7 12,8 19,2 14,0 3 2 10 5 ZZO 1019,2 36 0 0,0
22.04.2018 21:00:00 18,8 10,1 13,7 19,5 14,0 3 2 8 4 Z 1018,4 43 5 0,0
22.04.2018 20:00:00 19,4 9,6 17,0 19,6 14,0 4 2 13 7 ZO 1017,9 54 1 0,0
22.04.2018 19:00:00 20,5 10,3 20,5 19,5 14,0 8 4 22 12 ZZW 1018,0 53 21 0,0
22.04.2018 18:00:00 22,0 10,5 22,8 19,3 14,0 15 8 24 13 WZW 1017,7 20 50 0,0
22.04.2018 17:00:00 22,0 12,8 23,3 19,0 14,0 19 11 25 13 WZW 1017,6 20 53 0,0
22.04.2018 16:00:00 22,7 12,0 24,3 18,7 13,9 18 10 26 14 WZW 1017,8 21 44 0,0
22.04.2018 15:00:00 22,6 11,9 26,1 18,1 13,9 19 11 29 16 WZW 1018,3 20 60 0,0
22.04.2018 14:00:00 23,6 12,3 27,6 17,4 13,9 22 12 28 15 WZW 1018,4 20 60 0,0
22.04.2018 13:00:00 23,8 10,5 29,7 16,8 13,9 9 5 16 9 WNW 1018,4 20 60 0,0
22.04.2018 12:00:00 22,7 10,5 27,3 16,3 13,9 7 4 12 6 WNW 1018,7 18 60 0,0
22.04.2018 11:00:00 21,7 12,3 26,7 16,0 13,9 6 3 10 6 WNW 1018,8 15 60 0,0
22.04.2018 10:00:00 19,7 13,4 26,7 15,9 13,9 5 3 11 6 N 1018,6 17 60 0,0
22.04.2018 09:00:00 18,9 13,1 18,0 16,0 13,9 2 1 4 2 WNW 1018,4 18 60 0,0
22.04.2018 08:00:00 16,4 12,0 10,0 16,3 13,9 5 3 19 10 O 1018,0 13 53 0,0
22.04.2018 07:00:00 13,6 9,4 9,5 16,6 13,9 9 5 12 7 O 1018,1 15 0 0,0
22.04.2018 06:00:00 11,8 9,2 8,9 16,9 13,9 10 6 13 7 ZO 1018,1 9 0 0,0
22.04.2018 05:00:00 12,4 9,2 9,0 17,2 13,9 5 3 12 7 O 1018,5 15 0 0,0
22.04.2018 04:00:00 12,0 8,1 10,0 17,5 13,9 8 4 11 6 OZO 1018,4 19 0 0,0
22.04.2018 03:00:00 13,1 9,2 10,4 17,8 13,8 5 3 8 5 ZO 1018,4 19 0 0,0
22.04.2018 02:00:00 15,0 10,2 10,5 18,2 13,9 4 2 9 5 ZO 1018,5 17 0 0,0
22.04.2018 01:00:00 14,8 10,0 11,4 18,5 13,8 8 4 10 6 ZO 1018,9 18 0 0,0
22.04.2018 00:00:00 17,0 11,5 11,3 18,9 13,8 4 2 8 5 N 1019,1 20 0 0,0
21.04.2018 23:00:00 18,2 12,0 12,6 19,2 13,8 9 5 11 6 W 1019,4 28 0 0,0
21.04.2018 22:00:00 19,0 12,5 12,5 19,6 13,8 6 3 9 5 WZW 1019,3 17 0 0,0
21.04.2018 21:00:00 20,7 10,5 13,8 19,8 13,8 6 3 8 4 Z 1018,6 28 7 0,0
21.04.2018 20:00:00 22,4 9,9 21,6 19,8 13,8 5 3 14 7 ZW 1018,4 41 60 0,0
21.04.2018 19:00:00 23,0 12,6 24,4 19,7 13,8 13 7 22 12 WZW 1018,3 34 60 0,0
21.04.2018 18:00:00 23,6 11,9 26,1 19,4 13,8 17 9 22 12 WZW 1018,4 33 60 0,0
21.04.2018 17:00:00 25,8 10,4 29,2 19,0 13,8 14 7 21 11 WZW 1018,6 33 60 0,0
21.04.2018 16:00:00 26,0 7,6 30,6 18,4 13,8 11 6 24 13 ZZW 1019,0 35 60 0,0
21.04.2018 15:00:00 26,4 7,9 30,3 17,8 13,8 14 8 27 15 Z 1019,2 19 60 0,0
21.04.2018 14:00:00 26,4 9,3 30,5 17,0 13,8 20 11 29 16 Z 1019,3 37 60 0,0
21.04.2018 13:00:00 25,3 12,8 29,4 16,3 13,7 9 5 14 7 WZW 1019,5 40 60 0,0
21.04.2018 12:00:00 23,4 13,3 27,1 15,8 13,8 5 3 10 5 WNW 1020,0 20 60 0,0
21.04.2018 11:00:00 21,0 12,2 24,5 15,5 13,7 9 5 11 6 WZW 1020,3 18 60 0,0
21.04.2018 10:00:00 19,3 11,8 23,2 15,4 13,7 5 3 9 5 W 1020,2 29 60 0,0
21.04.2018 09:00:00 17,9 11,0 16,6 15,5 13,7 2 1 7 4 Z 1020,2 19 60 0,0
21.04.2018 08:00:00 14,6 9,8 9,2 15,7 13,8 6 3 8 5 ZZO 1020,1 16 51 0,0
21.04.2018 07:00:00 12,8 7,9 8,9 16,0 13,7 5 3 8 4 ZZO 1019,9 24 0 0,0
21.04.2018 06:00:00 12,7 8,0 8,8 16,3 13,7 6 3 8 4 Z 1019,9 23 0 0,0
21.04.2018 05:00:00 14,5 8,9 8,6 16,6 13,7 0 0 6 3 N 1020,1 27 0 0,0
21.04.2018 04:00:00 14,7 8,2 9,4 17,0 13,7 3 2 11 6 ONO 1020,4 30 0 0,0
21.04.2018 03:00:00 14,5 7,8 9,6 17,3 13,7 2 1 7 4 ZO 1021,0 30 0 0,0
21.04.2018 02:00:00 13,5 8,3 9,9 17,6 13,7 0 0 8 4 N 1021,4 28 0 0,0
21.04.2018 01:00:00 16,6 11,3 10,1 18,0 13,7 3 2 11 6 N 1021,6 30 0 0,0
21.04.2018 00:00:00 15,0 8,7 11,9 18,3 13,7 9 5 11 6 ZO 1021,8 32 0 0,0
20.04.2018 23:00:00 16,1 9,0 12,7 18,7 13,7 7 4 11 6 ZO 1021,8 30 0 0,0
20.04.2018 22:00:00 18,2 8,7 12,6 19,0 13,7 0 0 3 2 N 1021,9 27 0 0,0
20.04.2018 21:00:00 19,8 8,5 14,2 19,2 13,6 0 0 13 7 N 1021,8 18 6 0,0
20.04.2018 20:00:00 20,1 11,0 18,9 19,2 13,6 9 5 14 8 WZW 1021,6 10 60 0,0
20.04.2018 19:00:00 22,9 9,3 24,1 19,2 13,6 9 5 24 13 ZW 1021,6 48 60 0,0
20.04.2018 18:00:00 23,2 9,9 24,8 19,0 13,6 16 9 26 14 ZZW 1021,5 30 60 0,0
20.04.2018 17:00:00 24,1 8,9 27,9 18,6 13,6 21 12 31 17 ZZW 1021,5 17 60 0,0
20.04.2018 16:00:00 25,0 9,3 29,1 18,1 13,6 19 10 32 17 Z 1021,9 34 60 0,0
20.04.2018 15:00:00 25,1 9,0 29,1 17,4 13,6 18 10 29 16 Z 1022,6 36 60 0,0
20.04.2018 14:00:00 25,1 9,4 28,2 16,8 13,6 14 7 20 11 ZW 1022,9 29 60 0,0
20.04.2018 13:00:00 24,8 11,0 28,4 16,1 13,6 14 7 18 10 WZW 1023,3 19 60 0,0
20.04.2018 12:00:00 23,5 13,9 26,3 15,5 13,6 10 5 13 7 WZW 1023,8 13 60 0,0
20.04.2018 11:00:00 21,2 11,5 23,8 15,2 13,6 9 5 11 6 WZW 1023,9 13 60 0,0

tt = temperatuur
td = dauwpunt
tt 5cm = temperatuur 5cm
tt -20cm = temperatuur -20cm
tt -100cm = temperatuur -100cm
ff = windsnelheid
fx = windstoten
dd = windrichting
ppp = luchtdruk
vv = zicht
sd = Zonneschijnduur
rr = neerslag

Weerstations in de omgeving